| time (UTC) | temp F | wind direction | speed knots | gust knots | rain 1hr in | rain 24hr in | rain mn in | humidity % | barometer mb |
| 20260901131553 | 53 | 307 | 1.7 | 0.0 | 0.00 | 0.00 | 0.27 | 90 | 1005.8 |
| 20260901130052 | 53 | 285 | 2.6 | 0.0 | 0.00 | 0.00 | 0.27 | 90 | 1005.8 |
| 20260901124556 | 53 | 301 | 1.7 | 0.0 | 0.00 | 0.00 | 0.27 | 90 | 1005.7 |
| 20260901123052 | 53 | 315 | 1.7 | 0.0 | 0.00 | 0.00 | 0.27 | 92 | 1005.7 |
| 20260901121553 | 53 | 235 | 0.9 | 0.0 | 0.00 | 0.00 | 0.27 | 93 | 1005.7 |
| 20260901120048 | 52 | 291 | 0.9 | 0.0 | 0.00 | 0.00 | 0.27 | 94 | 1005.5 |
| 20260901114550 | 52 | 293 | 0.9 | 0.0 | 0.00 | 0.00 | 0.27 | 94 | 1005.5 |
| 20260901113046 | 52 | 305 | 0.9 | 0.0 | 0.00 | 0.00 | 0.27 | 95 | 1005.4 |
| 20260901111545 | 52 | 232 | 1.7 | 0.0 | 0.00 | 0.00 | 0.27 | 95 | 1005.2 |
| 20260901110044 | 51 | 225 | 2.6 | 0.0 | 0.00 | 0.00 | 0.27 | 95 | 1005.2 |
| 20260901104545 | 51 | 218 | 3.5 | 0.0 | 0.00 | 0.00 | 0.27 | 94 | 1005.1 |
| 20260901103042 | 51 | 241 | 3.5 | 0.0 | 0.00 | 0.00 | 0.27 | 94 | 1005.0 |
| 20260901101556 | 51 | 227 | 2.6 | 0.0 | 0.00 | 0.00 | 0.27 | 93 | 1004.8 |
| 20260901100046 | 52 | 267 | 1.7 | 0.0 | 0.00 | 0.00 | 0.27 | 93 | 1004.5 |
| 20260901094541 | 52 | 287 | 1.7 | 0.0 | 0.00 | 0.00 | 0.27 | 93 | 1004.5 |
| 20260901093034 | 52 | 220 | 0.9 | 0.0 | 0.00 | 0.00 | 0.27 | 93 | 1004.2 |
| 20260901091548 | 52 | 298 | 1.7 | 0.0 | 0.00 | 0.00 | 0.27 | 93 | 1004.1 |
| 20260901090036 | 52 | 306 | 2.6 | 0.0 | 0.00 | 0.00 | 0.27 | 93 | 1004.0 |
| 20260901084538 | 52 | 291 | 1.7 | 0.0 | 0.00 | 0.00 | 0.27 | 93 | 1004.0 |
| 20260901083039 | 52 | 292 | 2.6 | 0.0 | 0.00 | 0.00 | 0.27 | 94 | 1003.8 |
| 20260901081527 | 52 | 304 | 2.6 | 0.0 | 0.00 | 0.00 | 0.27 | 94 | 1003.9 |
| 20260901080058 | 52 | 296 | 1.7 | 0.0 | 0.00 | 0.00 | 0.26 | 94 | 1003.6 |
| 20260901074523 | 52 | 298 | 0.9 | 0.0 | 0.00 | 0.00 | 0.26 | 94 | 1003.4 |
| 20260901073023 | 52 | 311 | 1.7 | 0.0 | 0.00 | 0.00 | 0.26 | 94 | 1003.3 |
| 20260901071521 | 52 | 302 | 2.6 | 0.0 | 0.00 | 0.00 | 0.26 | 94 | 1003.2 |
| 20260901070028 | 52 | 294 | 2.6 | 0.0 | 0.00 | 0.00 | 0.26 | 95 | 1002.9 |
| 20260901064518 | 52 | 289 | 2.6 | 0.0 | 0.00 | 0.00 | 0.26 | 95 | 1002.7 |
| 20260901063018 | 53 | 219 | 0.0 | 0.0 | 0.00 | 0.00 | 0.26 | 96 | 1002.5 |
| 20260901061517 | 53 | 219 | 0.0 | 0.0 | 0.00 | 0.00 | 0.26 | 96 | 1002.4 |
| 20260901060016 | 53 | 220 | 0.0 | 0.0 | 0.00 | 0.00 | 0.25 | 96 | 1002.4 |
| 20260901054515 | 53 | 229 | 0.9 | 0.0 | 0.00 | 0.00 | 0.24 | 96 | 1002.2 |
| 20260901053017 | 53 | 196 | 0.9 | 0.0 | 0.00 | 0.00 | 0.23 | 95 | 1002.2 |
| 20260901051513 | 53 | 171 | 0.0 | 0.0 | 0.00 | 0.00 | 0.21 | 95 | 1002.1 |
| 20260901050113 | 53 | 171 | 0.0 | 0.0 | 0.00 | 0.00 | 0.20 | 95 | 1002.1 |
| 20260901044513 | 53 | 171 | 0.0 | 0.0 | 0.00 | 0.00 | 0.19 | 95 | 1002.1 |
| 20260901043024 | 53 | 171 | 0.0 | 0.0 | 0.00 | 0.00 | 0.18 | 95 | 1002.0 |
| 20260901041515 | 53 | 171 | 0.0 | 0.0 | 0.00 | 0.00 | 0.17 | 95 | 1002.1 |
| 20260901040012 | 53 | 171 | 0.0 | 0.0 | 0.00 | 0.00 | 0.16 | 95 | 1002.1 |
| 20260901034514 | 53 | 171 | 0.0 | 0.0 | 0.00 | 0.00 | 0.15 | 95 | 1002.1 |
| 20260901033017 | 53 | 171 | 0.0 | 0.0 | 0.00 | 0.00 | 0.14 | 95 | 1002.1 |
| 20260901031509 | 53 | 171 | 0.0 | 0.0 | 0.00 | 0.00 | 0.13 | 95 | 1002.0 |
| 20260901030014 | 53 | 171 | 0.0 | 0.0 | 0.00 | 0.00 | 0.11 | 95 | 1002.1 |
| 20260901024508 | 53 | 171 | 0.0 | 0.0 | 0.00 | 0.00 | 0.10 | 95 | 1002.0 |
| 20260901023007 | 53 | 171 | 0.0 | 0.0 | 0.00 | 0.00 | 0.09 | 95 | 1002.1 |
| 20260901021507 | 53 | 171 | 0.0 | 0.0 | 0.00 | 0.00 | 0.08 | 95 | 1002.1 |
| 20260901020011 | 53 | 171 | 0.0 | 0.0 | 0.00 | 0.00 | 0.06 | 95 | 1002.2 |
| 20260901014505 | 53 | 171 | 0.0 | 0.0 | 0.00 | 0.00 | 0.06 | 95 | 1002.2 |
| 20260901013007 | 53 | 171 | 0.0 | 0.0 | 0.00 | 0.00 | 0.04 | 95 | 1002.1 |
| 20260901011503 | 53 | 171 | 0.0 | 0.0 | 0.00 | 0.00 | 0.02 | 94 | 1002.1 |
| 20260901010002 | 53 | 171 | 0.0 | 0.0 | 0.00 | 0.00 | 0.02 | 94 | 1002.2 |
| 20260901004501 | 53 | 171 | 0.0 | 0.0 | 0.00 | 0.00 | 0.01 | 95 | 1002.2 |
| 20260901003101 | 53 | 171 | 0.0 | 0.0 | 0.00 | 0.00 | 0.01 | 95 | 1002.2 |
| 20260901001605 | 53 | 171 | 0.0 | 0.0 | 0.00 | 0.00 | 0.01 | 94 | 1002.4 |
| 20260901000057 | 53 | 171 | 0.0 | 0.0 | 0.00 | 0.00 | 0.00 | 94 | 1002.5 |
| 20260831234557 | 53 | 171 | 0.0 | 0.0 | 0.00 | 0.00 | 0.00 | 94 | 1002.5 |
| 20260831233055 | 53 | 171 | 0.0 | 0.0 | 0.00 | 0.00 | 0.00 | 94 | 1002.6 |
| 20260831231604 | 53 | 171 | 0.0 | 0.0 | 0.00 | 0.00 | 0.00 | 94 | 1002.6 |
| 20260831230056 | 53 | 171 | 0.0 | 0.0 | 0.00 | 0.00 | 0.00 | 94 | 1002.8 |
| 20260831224622 | 53 | 171 | 0.0 | 0.0 | 0.00 | 0.00 | 0.00 | 94 | 1002.8 |
| 20260831223049 | 53 | 171 | 0.0 | 0.0 | 0.00 | 0.00 | 0.00 | 94 | 1002.9 |
| 20260831221553 | 52 | 171 | 0.0 | 0.0 | 0.00 | 0.00 | 0.00 | 94 | 1003.0 |
| 20260831220050 | 52 | 171 | 0.0 | 0.0 | 0.00 | 0.00 | 0.00 | 93 | 1003.2 |
| 20260831214548 | 52 | 171 | 0.0 | 0.0 | 0.00 | 0.00 | 0.06 | 93 | 1003.3 |
| 20260831213044 | 52 | 171 | 0.0 | 0.0 | 0.00 | 0.00 | 0.06 | 93 | 1003.3 |
| 20260831211601 | 52 | 171 | 0.0 | 0.0 | 0.00 | 0.00 | 0.06 | 92 | 1003.2 |
| 20260831210041 | 52 | 171 | 0.0 | 0.0 | 0.00 | 0.00 | 0.06 | 92 | 1003.4 |
| 20260831204540 | 53 | 171 | 0.0 | 0.0 | 0.00 | 0.00 | 0.06 | 92 | 1003.3 |
| 20260831203044 | 53 | 171 | 0.0 | 0.0 | 0.00 | 0.00 | 0.06 | 91 | 1003.5 |
| 20260831201536 | 54 | 171 | 0.0 | 0.0 | 0.00 | 0.00 | 0.06 | 91 | 1003.6 |
| 20260831200035 | 54 | 171 | 0.0 | 0.0 | 0.00 | 0.00 | 0.06 | 91 | 1003.4 |
| 20260831194551 | 54 | 171 | 0.0 | 0.0 | 0.00 | 0.00 | 0.06 | 90 | 1003.5 |
| 20260831193047 | 54 | 171 | 0.0 | 0.0 | 0.00 | 0.00 | 0.06 | 90 | 1003.6 |
| 20260831191545 | 55 | 171 | 0.0 | 0.0 | 0.00 | 0.00 | 0.06 | 89 | 1003.6 |
| 20260831190033 | 56 | 171 | 0.0 | 0.0 | 0.00 | 0.00 | 0.06 | 89 | 1003.4 |
| 20260831184533 | 56 | 171 | 0.0 | 0.0 | 0.00 | 0.00 | 0.06 | 88 | 1003.5 |
| 20260831183033 | 56 | 172 | 0.0 | 0.0 | 0.00 | 0.00 | 0.06 | 88 | 1003.6 |
| 20260831181532 | 57 | 173 | 0.0 | 0.0 | 0.00 | 0.00 | 0.06 | 86 | 1003.5 |
| 20260831180036 | 58 | 173 | 0.0 | 0.0 | 0.00 | 0.00 | 0.06 | 85 | 1003.5 |
| 20260831174532 | 58 | 173 | 0.0 | 0.0 | 0.00 | 0.00 | 0.06 | 85 | 1003.6 |
| 20260831173039 | 59 | 175 | 0.0 | 0.0 | 0.00 | 0.00 | 0.06 | 85 | 1003.6 |
| 20260831171530 | 59 | 175 | 0.0 | 0.0 | 0.00 | 0.00 | 0.06 | 84 | 1003.4 |
| 20260831170031 | 59 | 175 | 0.0 | 0.0 | 0.00 | 0.00 | 0.06 | 83 | 1003.6 |
| 20260831164531 | 59 | 174 | 0.0 | 0.0 | 0.00 | 0.00 | 0.06 | 83 | 1003.5 |
| 20260831163033 | 59 | 175 | 0.0 | 0.0 | 0.00 | 0.00 | 0.06 | 81 | 1003.5 |
| 20260831161532 | 60 | 175 | 0.0 | 0.0 | 0.00 | 0.00 | 0.06 | 79 | 1003.4 |
| 20260831160033 | 61 | 179 | 0.0 | 0.0 | 0.00 | 0.00 | 0.06 | 80 | 1003.5 |
| 20260831154557 | 61 | 180 | 0.0 | 0.0 | 0.00 | 0.00 | 0.06 | 81 | 1003.6 |
| 20260831153028 | 60 | 184 | 0.0 | 0.0 | 0.00 | 0.00 | 0.06 | 83 | 1003.7 |
| 20260831151532 | 59 | 184 | 0.0 | 0.0 | 0.00 | 0.00 | 0.06 | 84 | 1003.5 |
| 20260831150027 | 59 | 184 | 0.9 | 0.0 | 0.00 | 0.00 | 0.06 | 83 | 1003.6 |
| 20260831144528 | 59 | 196 | 0.9 | 0.0 | 0.00 | 0.00 | 0.06 | 83 | 1003.7 |
| 20260831143026 | 59 | 201 | 0.9 | 0.0 | 0.00 | 0.00 | 0.06 | 83 | 1003.7 |
| 20260831141525 | 60 | 204 | 0.9 | 0.0 | 0.00 | 0.00 | 0.06 | 83 | 1003.7 |
| 20260831140024 | 60 | 209 | 0.9 | 0.0 | 0.00 | 0.00 | 0.06 | 82 | 1003.7 |
| 20260831134524 | 61 | 234 | 1.7 | 0.0 | 0.00 | 0.00 | 0.06 | 78 | 1003.7 |
| 20260831133024 | 63 | 194 | 1.7 | 0.0 | 0.00 | 0.00 | 0.06 | 77 | 1003.7 |